This is the latest recevied weather packets stored in our database for station/object VK3PBR-10. If no packets are shown the sender has not sent any weather packets the latest 10 day(s).
| Time | Temp. | Humidity | Pressure | Rain* | Wind** | Luminosity | Snow |
|---|---|---|---|---|---|---|---|
| 1787778971 | 8.89° C | 75% | 1031.6 hPa | - | - | - | - |
| 1787778071 | 7.78° C | 75% | 1031.6 hPa | - | - | - | - |
| 1787777171 | 6.67° C | 74% | 1031.4 hPa | - | - | - | - |
| 1787776271 | 7.22° C | 74% | 1031.3 hPa | - | - | - | - |
| 1787775370 | 7.22° C | 75% | 1031.1 hPa | - | - | - | - |
| 1787774470 | 7.22° C | 74% | 1030.8 hPa | - | - | - | - |
| 1787773570 | 8.33° C | 74% | 1030.9 hPa | - | - | - | - |
| 1787772670 | 8.33° C | 75% | 1030.9 hPa | - | - | - | - |
| 1787771770 | 7.78° C | 75% | 1030.7 hPa | - | - | - | - |
| 1787770869 | 7.78° C | 75% | 1030.7 hPa | - | - | - | - |
| 1787769969 | 7.78° C | 75% | 1030.6 hPa | - | - | - | - |
| 1787769069 | 7.78° C | 73% | 1030.6 hPa | - | - | - | - |
| 1787768168 | 7.78° C | 75% | 1030.4 hPa | - | - | - | - |
| 1787767268 | 7.22° C | 75% | 1030.4 hPa | - | - | - | - |
| 1787766368 | 6.67° C | 75% | 1030.5 hPa | - | - | - | - |
| 1787765467 | 6.67° C | 75% | 1030.6 hPa | - | - | - | - |
| 1787764567 | 7.22° C | 75% | 1030.7 hPa | - | - | - | - |
| 1787763667 | 7.22° C | 75% | 1030.8 hPa | - | - | - | - |
| 1787762767 | 7.22° C | 75% | 1030.9 hPa | - | - | - | - |
| 1787761867 | 7.22° C | 75% | 1030.9 hPa | - | - | - | - |
| 1787760967 | 7.22° C | 74% | 1031 hPa | - | - | - | - |
| 1787760066 | 7.78° C | 75% | 1031.1 hPa | - | - | - | - |
| 1787759166 | 7.78° C | 76% | 1031.3 hPa | - | - | - | - |
| 1787758266 | 7.22° C | 75% | 1031.4 hPa | - | - | - | - |
| 1787757366 | 7.22° C | 74% | 1031.5 hPa | - | - | - | - |
* Rain since midnight (hover to see other rain measurements)
** Current wind speed in m/s (hover to see current wind gust speed)